Radiation Dose at Monitoring Post of Fukushima Daini Nuclear Power Station
Date,Time,MP-1(microSv/h),MP-2(microSv/h),MP-3(microSv/h),MP-4(microSv/h),MP-5(microSv/h),MP-6(microSv/h),MP-7(microSv/h),Wind Direction,Wind Velocity(m/s),Rain
2013/01/30,00:00,1.1,0.7,1.1,1.0,0.9,0.5,0.4,north,1.3,No
2013/01/30,00:10,1.1,0.7,1.1,1.0,0.9,0.5,0.4,north-northwest,2.3,No
2013/01/30,00:20,1.1,0.7,1.1,1.0,0.9,0.5,0.4,northwest,2.1,No
2013/01/30,00:30,1.1,0.7,1.1,1.0,0.9,0.5,0.4,northwest,2.1,No
2013/01/30,00:40,1.1,0.7,1.1,1.0,0.9,0.5,0.4,northwest,1.2,No
2013/01/30,00:50,1.1,0.7,1.1,1.0,0.9,0.5,0.4,northwest,0.9,No
2013/01/30,01:00,1.1,0.7,1.1,1.0,0.9,0.5,0.4,east-southeast,1.1,No
2013/01/30,01:10,1.1,0.7,1.1,1.0,0.9,0.5,0.4,east-northeast,0.6,No
2013/01/30,01:20,1.1,0.7,1.1,1.0,0.9,0.5,0.4,east-southeast,0.7,No
2013/01/30,01:30,1.1,0.7,1.1,1.0,0.9,0.5,0.4,-,-,No
2013/01/30,01:40,1.1,0.7,1.1,1.0,0.9,0.5,0.4,east,1.1,No
2013/01/30,01:50,1.1,0.7,1.1,1.0,0.9,0.5,0.4,east-southeast,1.0,No
2013/01/30,02:00,1.1,0.7,1.1,1.0,0.9,0.5,0.4,east-southeast,1.8,No
2013/01/30,02:10,1.1,0.7,1.1,1.0,0.9,0.5,0.4,east-southeast,1.5,No
2013/01/30,02:20,1.1,0.7,1.1,1.0,0.9,0.5,0.4,southeast,1.7,No
2013/01/30,02:30,1.1,0.7,1.1,1.0,0.9,0.5,0.4,south-southeast,1.4,No
2013/01/30,02:40,1.1,0.7,1.1,1.0,0.9,0.5,0.4,south-southeast,3.0,No
2013/01/30,02:50,1.1,0.7,1.1,1.0,0.9,0.5,0.4,south,2.4,No
2013/01/30,03:00,1.1,0.7,1.1,1.0,0.9,0.5,0.4,south,3.3,No
2013/01/30,03:10,1.1,0.7,1.1,1.0,0.9,0.5,0.4,south,2.3,No
2013/01/30,03:20,1.1,0.7,1.1,1.0,0.9,0.5,0.4,south,2.9,No
2013/01/30,03:30,1.1,0.7,1.1,1.0,0.9,0.5,0.4,south,3.8,No
2013/01/30,03:40,1.1,0.7,1.1,1.0,0.9,0.5,0.4,south,2.4,No
2013/01/30,03:50,1.1,0.7,1.1,1.0,0.9,0.5,0.4,south,1.8,No
2013/01/30,04:00,1.1,0.7,1.1,1.0,0.9,0.5,0.4,southeast,0.6,No
2013/01/30,04:10,1.1,0.7,1.1,1.0,0.9,0.5,0.4,-,-,No
2013/01/30,04:20,1.1,0.7,1.1,1.0,0.9,0.5,0.4,northeast,0.8,No
2013/01/30,04:30,1.1,0.7,1.1,1.0,0.9,0.5,0.4,north-northeast,1.4,No
2013/01/30,04:40,1.1,0.7,1.1,1.0,0.9,0.5,0.4,northwest,2.1,No
2013/01/30,04:50,1.1,0.7,1.1,1.0,0.9,0.5,0.4,northwest,4.4,No
2013/01/30,05:00,1.1,0.7,1.1,1.0,0.9,0.5,0.4,northwest,3.4,No
2013/01/30,05:10,1.1,0.7,1.1,1.0,0.9,0.5,0.4,north-northwest,2.0,No
2013/01/30,05:20,1.1,0.7,1.1,1.0,0.9,0.5,0.4,north-northwest,2.1,No
2013/01/30,05:30,1.1,0.7,1.1,1.0,0.9,0.5,0.4,north,2.5,No
2013/01/30,05:40,1.1,0.7,1.1,1.0,0.9,0.5,0.4,north-northwest,2.9,No
2013/01/30,05:50,1.1,0.7,1.1,1.0,0.9,0.5,0.4,north-northwest,3.1,No
2013/01/30,06:00,1.1,0.7,1.1,1.0,0.9,0.5,0.4,north,3.9,No
2013/01/30,06:10,1.1,0.7,1.1,1.0,0.9,0.5,0.4,north,2.7,No
2013/01/30,06:20,1.1,0.7,1.1,1.0,0.9,0.5,0.4,north,1.6,No
2013/01/30,06:30,1.1,0.7,1.1,1.0,0.9,0.5,0.4,north-northeast,1.5,No
2013/01/30,06:40,1.1,0.7,1.1,1.0,0.9,0.5,0.4,north-northeast,2.0,No
2013/01/30,06:50,1.1,0.7,1.1,1.0,0.9,0.5,0.4,northeast,2.2,No
2013/01/30,07:00,1.1,0.7,1.1,1.0,0.9,0.5,0.4,north-northeast,2.0,No
2013/01/30,07:10,1.1,0.7,1.1,1.0,0.9,0.5,0.4,north-northeast,1.1,No
2013/01/30,07:20,1.1,0.7,1.1,1.0,0.9,0.5,0.4,north-northeast,1.6,No
2013/01/30,07:30,1.1,0.7,1.1,1.0,0.9,0.5,0.4,north,2.9,No
2013/01/30,07:40,1.1,0.7,1.1,1.0,0.9,0.5,0.4,north-northeast,3.7,No
2013/01/30,07:50,1.1,0.7,1.1,1.0,0.9,0.5,0.4,north-northeast,3.5,No
2013/01/30,08:00,1.1,0.7,1.1,1.0,0.9,0.5,0.4,north,5.4,No
2013/01/30,08:10,1.1,0.7,1.1,1.0,0.9,0.5,0.4,north,4.2,No
2013/01/30,08:20,1.1,0.7,1.1,1.0,0.9,0.5,0.4,north,4.0,No
2013/01/30,08:30,1.1,0.7,1.1,1.0,0.9,0.5,0.4,north,4.4,No
2013/01/30,08:40,1.1,0.7,1.1,1.0,0.9,0.5,0.4,north-northwest,5.4,No
2013/01/30,08:50,1.1,0.7,1.1,1.0,0.9,0.5,0.4,north,6.8,No
2013/01/30,09:00,1.1,0.7,1.1,1.0,0.9,0.5,0.4,north-northwest,6.9,No
2013/01/30,09:10,1.1,0.7,1.1,1.0,0.9,0.5,0.4,north-northwest,8.1,No
2013/01/30,09:20,1.1,0.7,1.1,1.0,0.9,0.5,0.4,north-northwest,7.6,No
2013/01/30,09:30,1.1,0.7,1.1,1.0,0.9,0.5,0.4,north,7.2,No
2013/01/30,09:40,1.1,0.7,1.1,1.0,0.9,0.5,0.4,north,6.8,No
2013/01/30,09:50,1.1,-,1.1,1.0,0.9,0.5,0.4,north,6.3,No
2013/01/30,10:00,1.1,-,1.1,1.0,0.9,0.5,0.4,north-northwest,5.4,No
2013/01/30,10:10,1.1,-,1.1,1.0,0.9,0.5,0.4,north,7.5,No
2013/01/30,10:20,1.1,-,1.1,1.0,0.9,0.5,0.4,north,6.0,No
2013/01/30,10:30,1.1,-,1.1,1.0,0.9,0.5,0.4,north,6.4,No
2013/01/30,10:40,1.1,-,1.1,1.0,0.9,0.5,0.4,north,6.2,No
2013/01/30,10:50,1.1,-,1.1,1.0,0.9,0.5,0.4,north,5.0,No
2013/01/30,11:00,1.1,-,1.1,1.0,0.9,0.5,0.4,north,6.0,No
2013/01/30,11:10,1.1,-,1.1,1.0,0.9,0.5,0.4,north-northeast,5.9,No
2013/01/30,11:20,1.1,-,1.1,1.0,0.9,0.5,0.4,north-northeast,9.5,No
2013/01/30,11:30,1.1,-,1.1,1.0,0.9,0.5,0.4,north,6.4,No
2013/01/30,11:40,1.1,-,1.1,1.0,0.9,0.5,0.4,north,7.0,No
2013/01/30,11:50,1.1,-,1.1,1.0,0.9,0.5,0.4,north-northwest,6.8,No
2013/01/30,12:00,1.1,-,1.1,1.0,0.9,0.5,0.4,north,6.9,No
2013/01/30,12:10,1.1,-,1.1,1.0,0.9,0.5,0.4,north-northwest,8.1,No
2013/01/30,12:20,1.1,-,1.1,1.0,0.9,0.5,0.4,north-northwest,7.8,No
2013/01/30,12:30,1.1,-,1.1,1.0,0.9,0.5,0.4,north-northwest,8.2,No
2013/01/30,12:40,1.1,-,1.1,1.0,0.9,0.5,0.4,north-northwest,7.5,No
2013/01/30,12:50,1.1,-,1.1,1.0,0.9,0.5,0.4,north-northwest,9.2,No
2013/01/30,13:00,1.1,-,1.1,1.0,0.9,0.5,0.4,north-northwest,7.3,No
2013/01/30,13:10,1.1,-,1.1,1.0,0.9,0.5,0.4,north-northwest,9.5,No
2013/01/30,13:20,1.1,-,1.1,1.0,0.9,0.5,0.4,north-northwest,8.1,No
2013/01/30,13:30,1.1,-,1.1,1.0,0.9,0.5,0.4,north-northwest,7.0,No
2013/01/30,13:40,1.1,-,1.1,1.0,0.9,0.5,0.4,north-northwest,8.5,No
2013/01/30,13:50,1.1,-,1.1,1.0,0.9,0.5,0.4,north-northwest,10.3,No
2013/01/30,14:00,1.1,-,1.1,1.0,0.9,0.5,0.4,north-northwest,9.8,No
2013/01/30,14:10,1.1,-,1.1,1.0,0.9,0.5,0.4,north-northwest,8.2,No
2013/01/30,14:20,1.1,-,1.1,1.0,0.9,0.5,0.4,north-northwest,8.3,No
2013/01/30,14:30,1.1,-,1.1,1.0,0.9,0.5,0.4,northwest,9.6,No
2013/01/30,14:40,1.1,-,1.1,1.0,0.9,0.5,0.4,northwest,9.5,No
2013/01/30,14:50,1.1,-,1.1,1.0,0.9,0.5,0.4,northwest,11.8,No
2013/01/30,15:00,1.1,-,1.1,1.0,0.9,0.5,0.4,northwest,10.6,No
2013/01/30,15:10,1.1,-,1.1,1.0,0.9,0.5,0.4,northwest,7.7,No
2013/01/30,15:20,1.1,0.7,1.1,1.0,0.9,0.5,0.4,north-northwest,7.2,No
2013/01/30,15:30,1.1,0.7,1.1,1.0,0.9,0.5,0.4,north-northwest,8.5,No
2013/01/30,15:40,1.1,0.7,1.1,1.0,0.9,0.5,0.4,north-northwest,9.5,No
2013/01/30,15:50,1.1,0.7,1.1,1.0,0.9,0.5,0.4,north-northwest,11.4,No
2013/01/30,16:00,1.1,0.7,1.1,1.0,0.9,0.5,0.4,north-northwest,11.2,No
2013/01/30,16:10,1.1,0.7,1.1,1.0,0.9,0.5,0.4,north-northwest,10.0,No
2013/01/30,16:20,1.1,0.7,1.1,1.0,0.9,0.5,0.4,north-northwest,9.0,No
2013/01/30,16:30,1.1,0.7,1.1,1.0,0.9,0.5,0.4,north-northwest,9.3,No
2013/01/30,16:40,1.1,0.7,1.1,1.0,0.9,0.5,0.4,north-northwest,8.1,No
2013/01/30,16:50,1.1,0.7,1.1,1.0,0.9,0.5,0.4,north-northwest,10.3,No
2013/01/30,17:00,1.1,0.7,1.1,1.0,0.9,0.5,0.4,north-northwest,9.5,No
2013/01/30,17:10,1.1,0.7,1.1,1.0,0.9,0.5,0.4,north-northwest,12.2,No
2013/01/30,17:20,1.1,0.7,1.1,1.0,0.9,0.5,0.4,north-northwest,9.8,No
2013/01/30,17:30,1.1,0.7,1.1,1.0,0.9,0.5,0.4,north-northwest,10.6,No
2013/01/30,17:40,1.1,0.7,1.1,1.0,0.9,0.5,0.4,north-northwest,11.7,No
2013/01/30,17:50,1.1,0.7,1.1,1.0,0.9,0.5,0.4,north-northwest,10.3,No
2013/01/30,18:00,1.1,0.7,1.1,1.0,0.9,0.5,0.4,northwest,10.6,No
2013/01/30,18:10,1.1,0.7,1.1,1.0,0.9,0.5,0.4,north-northwest,12.0,No
2013/01/30,18:20,1.1,0.7,1.1,1.0,0.9,0.5,0.4,northwest,10.1,No
2013/01/30,18:30,1.1,0.7,1.1,1.0,0.9,0.5,0.4,north-northwest,8.8,No
2013/01/30,18:40,1.1,0.7,1.1,1.0,0.9,0.5,0.4,north-northwest,7.7,No
2013/01/30,18:50,1.1,0.7,1.1,1.0,0.9,0.5,0.4,north-northwest,7.3,No
2013/01/30,19:00,1.1,0.7,1.1,1.0,0.9,0.5,0.4,northwest,7.7,No
2013/01/30,19:10,1.1,0.7,1.1,1.0,0.9,0.5,0.4,northwest,6.1,No
2013/01/30,19:20,1.1,0.7,1.1,1.0,0.9,0.5,0.4,north-northwest,7.3,No
2013/01/30,19:30,1.1,0.7,1.1,1.0,0.9,0.5,0.4,northwest,8.5,No
2013/01/30,19:40,1.1,0.7,1.1,1.0,0.9,0.5,0.4,north-northwest,7.0,No
2013/01/30,19:50,1.1,0.7,1.1,1.0,0.9,0.5,0.4,north-northwest,7.4,No
2013/01/30,20:00,1.1,0.7,1.1,1.0,0.9,0.5,0.4,north-northwest,6.2,No
2013/01/30,20:10,1.1,0.7,1.1,1.0,0.9,0.5,0.4,north-northwest,7.0,No
2013/01/30,20:20,1.1,0.7,1.1,1.0,0.9,0.5,0.4,north-northwest,6.3,No
2013/01/30,20:30,1.1,0.7,1.1,1.0,0.9,0.5,0.4,north-northwest,5.6,No
2013/01/30,20:40,1.1,0.7,1.1,1.0,0.9,0.5,0.4,north-northwest,7.1,No
2013/01/30,20:50,1.1,0.7,1.1,1.0,0.9,0.5,0.4,north-northwest,6.7,No
2013/01/30,21:00,1.1,0.7,1.1,1.0,0.9,0.5,0.4,north-northwest,8.2,No
2013/01/30,21:10,1.1,0.7,1.1,1.0,0.9,0.5,0.4,north-northwest,8.5,No
2013/01/30,21:20,1.1,0.7,1.1,1.0,0.9,0.5,0.4,north-northwest,8.1,No
2013/01/30,21:30,1.1,0.7,1.1,1.0,0.9,0.5,0.4,north-northwest,6.8,No
2013/01/30,21:40,1.1,0.7,1.1,1.0,0.9,0.5,0.4,north-northwest,4.1,No
2013/01/30,21:50,1.1,0.7,1.1,1.0,0.9,0.5,0.4,north-northwest,5.2,No
2013/01/30,22:00,1.1,0.7,1.1,1.0,0.9,0.5,0.4,north-northwest,6.4,No
2013/01/30,22:10,1.1,0.7,1.1,1.0,0.9,0.5,0.4,north-northwest,6.7,No
2013/01/30,22:20,1.1,0.7,1.1,1.0,0.9,0.5,0.4,north-northwest,6.7,No
2013/01/30,22:30,1.1,0.7,1.1,1.0,0.9,0.5,0.4,north-northwest,6.6,No
2013/01/30,22:40,1.1,0.7,1.1,1.0,0.9,0.5,0.4,north-northwest,6.4,No
2013/01/30,22:50,1.1,0.7,1.1,1.0,0.9,0.5,0.4,north,6.9,No
2013/01/30,23:00,1.1,0.7,1.1,1.0,0.9,0.5,0.4,north,6.8,No
2013/01/30,23:10,1.1,0.7,1.1,1.0,0.9,0.5,0.4,north,8.3,No
2013/01/30,23:20,1.1,0.7,1.1,1.0,0.9,0.5,0.4,north,9.2,No
2013/01/30,23:30,1.1,0.7,1.1,1.0,0.9,0.5,0.4,north,9.5,No
2013/01/30,23:40,1.1,0.7,1.1,1.0,0.9,0.5,0.4,north,9.2,No
2013/01/30,23:50,1.1,0.7,1.1,1.0,0.9,0.5,0.4,north-northwest,7.9,No
